Location: Newark
(44.3248°N, 23.7839°E)
Time: 15:19:38
(UTC+00:00)

FO-29 - Pass Details

Date: 01 May 2024
Orbit: 801 x 1320 km, 98.6° (Epoch: 19 May)

Event Time Altitude Azimuth Distance (km) Brightness Sun altitude
Rises 22:19:11 0° 29° (NNE) 4,308 13.7 -30.2°
Reaches altitude 10° 22:23:37 10° 52° (NE) 3,355 12.7 -30.2°
Maximum altitude 22:27:37 15° 83° (E) 2,999 12.1 -30.2°
Enters shadow 22:30:45 12° 108° (ESE) 3,196 12.0 -30.2°
